[[{"header":{"parameterUnit":"m.s-1","parameterCategory":1,"la1":30.2991,"la2":30.254,"lo1":-89.0895,"lo2":-89.0444,"dy":0.0017,"dx":0.0017,"nx":28,"ny":28,"refTime":"2025-03-27T21:00:00:Z","depth":0,"parameterNumber":2,"parameterNumberName":"U-component_of_WINDS"},"data":[0,0,0,0,0,0,0,0,0,0,0,0,0,0,0,0,0,0,0,0,0,0,0,0,0,0,0,0,0,0,0,0,0,0,0,0,0,0,0,0,0,0,0,0,0,0,0,0,0,0,0,0,0,0,0,0,0,0,-6.7465,-6.7466,0,-6.7579,-6.7581,-6.7582,-6.7556,-6.7554,-6.7552,-6.755,-6.7662,-6.7667,-6.7672,0,0,0,0,0,0,0,0,0,0,0,0,0,-6.7219,-6.7224,-6.7464,-6.7466,-6.7467,-6.7579,-6.7581,-6.7582,-6.7556,-6.7554,-6.7551,-6.7549,-6.7661,-6.7667,-6.7673,0,0,0,0,0,0,0,0,0,0,0,0,0,-6.7329,-6.7225,-6.7464,-6.7468,-6.7469,-6.7579,-6.7581,-6.7583,-6.7557,-6.7554,-6.755,-6.7547,-6.7659,-6.7666,-6.7674,-6.7785,0,0,-6.7697,-6.77,0,0,0,0,0,0,0,0,-6.7323,-6.7338,-6.7466,-6.7468,-6.747,-6.755,-6.7536,-6.765,-6.7558,-6.7524,-6.755,-6.7546,-6.7627,-6.7637,-6.7666,-6.779,-6.7795,-6.7697,-6.7702,-6.7705,-6.7707,0,0,0,0,0,0,0,-6.7315,-6.7333,-6.751,-6.7468,-6.747,-6.7463,-6.7475,-6.7557,-6.7592,-6.7526,-6.7525,-6.7539,-6.7628,-6.7659,-6.7668,-6.7797,-6.7697,-6.7704,-6.7708,-6.7711,-6.8018,-6.8021,0,0,0,0,0,0,-6.7306,-6.7327,-6.7506,-6.7513,-6.7387,-6.747,-6.7483,-6.7527,-6.7591,-6.7598,-6.7542,-6.7537,-6.7647,-6.7659,-6.7672,-6.7805,-6.7705,-6.7712,-6.7716,-6.8014,-6.8018,-6.8022,0,0,0,0,0,0,-6.7301,-6.7323,-6.7501,-6.742,-6.7442,-6.7478,-6.7527,-6.7531,-6.7562,-6.7603,-6.7608,-6.7567,-6.7645,-6.7662,-6.7757,-6.7809,-6.7715,-6.7722,-6.801,-6.8015,-6.802,-6.8073,0,0,0,0,0,0,-6.7294,-6.7321,-6.7364,-6.7421,-6.7446,-6.7586,-6.7531,-6.7536,-6.7576,-6.7571,-6.7628,-6.7634,-6.7644,-6.7746,-6.7765,-6.7817,-6.7728,-6.8005,-6.8012,-6.8019,-6.8067,-6.808,-6.8091,0,0,0,0,0,-6.7286,-6.7374,-6.7366,-6.7388,-6.7501,-6.7589,-6.7603,-6.7614,-6.758,-6.7623,-6.765,-6.7632,-6.7801,-6.7756,-6.7777,-6.7833,-6.8002,-6.801,-6.8018,-6.8061,-6.8077,-6.809,0,0,0,0,0,0,-6.732,-6.7381,-6.7374,-6.7483,-6.7531,-6.7584,-6.7638,-6.763,-6.7688,-6.7681,-6.7691,-6.7704,-6.7801,-6.7827,-6.7776,-6.7944,-6.7896,-6.7909,-6.7922,-6.7938,-6.7949,-6.7939,-6.7734,0,0,0,0,0,-6.7341,-6.7408,-6.7457,-6.7548,-6.7573,-6.7602,-6.7641,-6.7645,-6.7695,-6.7714,-6.7748,-6.7795,-6.7859,-6.79,-6.7961,-6.8072,-6.8083,-6.8121,-6.8133,-6.8142,-6.8152,-6.8211,-6.8228,-6.8049,-6.8049,-6.8049,0,0,-6.7383,-6.7425,-6.7466,-6.7557,-6.7594,-6.7662,-6.7619,-6.7693,-6.7743,-6.7725,-6.7817,-6.7844,-6.7898,-6.8001,-6.8048,-6.8026,-6.8205,-6.8153,-6.816,-6.8164,-6.8221,-6.8238,-6.8253,-6.8055,-6.8054,-6.8053,0,0,-6.7494,-6.7534,-6.7613,-6.7653,-6.7712,-6.7731,-6.775,-6.7806,-6.7823,-6.7916,-6.7904,-6.7964,-6.8074,-6.8112,-6.8146,-6.8276,-6.8261,-6.8295,-6.8356,-6.8414,-6.8428,-6.844,-6.8484,-6.85,-6.8306,-6.8306,-6.8306,0,-6.7538,-6.7641,-6.7655,-6.7731,-6.777,-6.776,-6.784,-6.7878,-6.7953,-6.798,-6.7954,-6.8093,-6.8128,-6.824,-6.8272,-6.8301,-6.8322,-6.8287,-6.8425,-6.8438,-6.845,-6.8491,-6.8508,-6.8309,-6.8309,-6.8309,-6.8308,0,-6.7692,-6.7764,-6.7822,-6.7896,-6.7943,-6.802,-6.8045,-6.809,-6.8092,-6.8113,-6.8208,-6.8252,-6.8321,-6.8349,-6.835,-6.8461,-6.8445,-6.8423,-6.8375,-6.847,-6.8509,-6.8526,-6.8314,-6.8313,-6.8312,-6.8311,0,0,-6.7824,-6.7908,-6.7928,-6.7962,-6.8027,-6.8082,-6.816,-6.8229,-6.8267,-6.832,-6.8383,-6.8478,-6.8459,-6.8497,-6.8504,-6.8555,-6.8652,-6.8526,-6.8528,-6.8546,-6.8775,-6.8789,-6.8807,-6.8645,-6.8648,-6.8651,-6.877,0,-6.7939,-6.8076,-6.8092,-6.8213,-6.8279,-6.8272,-6.8339,-6.8386,-6.8409,-6.8467,-6.8492,-6.8558,-6.8528,-6.8552,-6.8603,-6.863,-6.8698,-6.8622,-6.8702,-6.8704,-6.8685,-6.8828,-6.8843,-6.8953,-6.8785,-6.8788,-6.879,0,-6.809,-6.8149,-6.8278,-6.8335,-6.8363,-6.8423,-6.8488,-6.8545,-6.8598,-6.8611,-6.8656,-6.8656,-6.8735,-6.8687,-6.8795,-6.8743,-6.8777,-6.8796,-6.88,-6.8805,-6.875,-6.8834,-6.8988,-6.9003,-6.8815,-6.8813,-6.8811,0,-6.817,-6.8282,-6.8373,-6.8403,-6.8472,-6.8514,-6.8545,-6.8595,-6.8636,-6.8693,-6.872,-6.8785,-6.882,-6.887,-6.8888,-6.8852,-6.8994,-6.8948,-6.9005,-6.9005,-6.9032,-6.9029,-6.9191,-6.906,-6.906,-6.906,-6.9059,0,-6.8295,-6.8373,-6.841,-6.8466,-6.8553,-6.8571,-6.8656,-6.8685,-6.873,-6.879,-6.8789,-6.8846,-6.8867,-6.8927,-6.8942,-6.9027,-6.9044,-6.9055,-6.9057,-6.9053,-6.9051,-6.9073,-6.9064,-6.9064,-6.9063,-6.9062,-6.9061,0,-6.8397,-6.8426,-6.8524,-6.8583,-6.8599,-6.8661,-6.871,-6.8764,-6.8787,-6.8864,-6.8883,-6.8919,-6.899,-6.9014,-6.9098,-6.9108,-6.9207,-6.9205,-6.9189,-6.9189,-6.9243,-6.9237,-6.9421,-6.9445,-6.9302,-6.9303,-6.9304,0,-6.8473,-6.8533,-6.8599,-6.864,-6.8672,-6.8739,-6.8781,-6.8802,-6.8846,-6.8912,-6.8957,-6.9028,-6.9084,-6.9197,-6.923,-6.9295,-6.9292,-6.9353,-6.9302,-6.9296,-6.929,-6.9285,-6.929,-6.9361,-6.9362,-6.9363,-6.9364,0,-6.8603,-6.8615,-6.8677,-6.8745,-6.8796,-6.885,-6.8902,-6.8935,-6.8964,-6.9013,-6.9086,-6.9131,-6.9218,-6.9287,-6.9355,-6.9385,-6.9379,-6.9381,-6.9397,-6.9392,-6.9379,-6.9384,-6.9212,-6.9376,-6.9375,-6.9374,-6.9373,-6.9373,-6.8693,-6.8746,-6.8801,-6.887,-6.8912,-6.8961,-6.9014,-6.9045,-6.9107,-6.918,-6.9189,-6.9267,-6.932,-6.9409,-6.9443,-6.9504,-6.9486,-6.951,-6.9516,-6.952,-6.9523,-6.9373,-6.9516,-6.9516,-6.9516,-6.9515,-6.9515,0,-6.8821,-6.8857,-6.8921,-6.8994,-6.9048,-6.9042,-6.9099,-6.9145,-6.9214,-6.9264,-6.9321,-6.9404,-6.9472,-6.9512,-6.958,-6.9621,-6.962,-6.9637,-6.9632,-6.9639,-6.9536,-6.9514,-6.9637,-6.9637,-6.9637,-6.9637,-6.9637,-6.9637,-6.8894,-6.8982,-6.9001,-6.9111,-6.9146,-6.9223,-6.9256,-6.9301,-6.9341,-6.9435,-6.9492,-6.9519,-6.9564,-6.9636,-6.9697,-6.9707,-6.9731,-6.975,-6.9758,-6.9659,-6.9647,-6.9635,-6.9614,-6.9756,-6.9756,-6.9856,-6.9857,-6.9857]},{"header":{"parameterUnit":"m.s-1","parameterCategory":1,"la1":30.2991,"la2":30.254,"lo1":-89.0895,"lo2":-89.0444,"dy":0.0017,"dx":0.0017,"nx":28,"ny":28,"refTime":"2025-03-27T21:00:00:Z","depth":0,"parameterNumber":3,"parameterNumberName":"V-component_of_WINDS"},"data":[0,0,0,0,0,0,0,0,0,0,0,0,0,0,0,0,0,0,0,0,0,0,0,0,0,0,0,0,0,0,0,0,0,0,0,0,0,0,0,0,0,0,0,0,0,0,0,0,0,0,0,0,0,0,0,0,0,0,4.2944,4.2945,0,4.3078,4.3079,4.3081,4.3115,4.3114,4.3113,4.3112,4.3243,4.3248,4.3252,0,0,0,0,0,0,0,0,0,0,0,0,0,4.2714,4.2718,4.2944,4.2945,4.2947,4.3077,4.3079,4.3081,4.3115,4.3114,4.3113,4.3112,4.3242,4.3247,4.3252,0,0,0,0,0,0,0,0,0,0,0,0,0,4.2827,4.272,4.2943,4.298,4.2984,4.3077,4.3079,4.3081,4.3115,4.3114,4.3113,4.3111,4.324,4.3247,4.3253,4.3317,0,0,4.3272,4.3275,0,0,0,0,0,0,0,0,4.2821,4.2836,4.2973,4.2978,4.2983,4.3078,4.3046,4.316,4.3115,4.3065,4.3112,4.3111,4.3189,4.32,4.3227,4.3323,4.3329,4.3273,4.3277,4.328,4.3281,0,0,0,0,0,0,0,4.2813,4.283,4.2996,4.2975,4.2981,4.2988,4.3003,4.3068,4.3132,4.307,4.3072,4.3088,4.3192,4.3221,4.3231,4.3331,4.3273,4.3278,4.3282,4.3285,4.3489,4.349,0,0,0,0,0,0,4.28,4.2823,4.2992,4.3001,4.2897,4.2994,4.301,4.3049,4.3132,4.3143,4.3089,4.3089,4.3211,4.3223,4.3235,4.3318,4.328,4.3286,4.3289,4.3487,4.3489,4.3491,0,0,0,0,0,0,4.2795,4.2814,4.2987,4.2913,4.2936,4.2999,4.3042,4.3052,4.3082,4.3147,4.3158,4.3108,4.321,4.3226,4.3298,4.3323,4.3288,4.3294,4.3485,4.3488,4.349,4.3481,0,0,0,0,0,0,4.2788,4.2812,4.2838,4.2913,4.2939,4.3048,4.3044,4.3056,4.3093,4.3095,4.3167,4.3177,4.321,4.3288,4.3304,4.3331,4.3299,4.3483,4.3486,4.3489,4.348,4.3483,4.3486,0,0,0,0,0,4.278,4.2828,4.2839,4.2859,4.2973,4.3049,4.3064,4.3102,4.3095,4.3121,4.3163,4.3175,4.3317,4.3295,4.3313,4.3342,4.3482,4.3485,4.3489,4.3478,4.3482,4.3486,0,0,0,0,0,0,4.2751,4.2839,4.2851,4.2926,4.2981,4.3055,4.3088,4.3105,4.3161,4.316,4.3204,4.322,4.3288,4.3322,4.3295,4.341,4.3399,4.3407,4.3385,4.339,4.3393,4.3383,4.3305,0,0,0,0,0,4.2754,4.281,4.2883,4.2942,4.2969,4.3024,4.3059,4.3084,4.3141,4.3163,4.321,4.3264,4.3321,4.3357,4.3413,4.3485,4.3502,4.3514,4.3518,4.352,4.3526,4.3568,4.3575,4.3502,4.3502,4.3502,0,0,4.276,4.2815,4.2847,4.2938,4.2983,4.3039,4.3043,4.3101,4.3144,4.3171,4.3243,4.3279,4.3342,4.3415,4.3449,4.3445,4.355,4.3525,4.3526,4.353,4.3573,4.358,4.3586,4.3505,4.3504,4.3504,0,0,4.2799,4.2846,4.2902,4.2948,4.3017,4.3054,4.3067,4.314,4.3166,4.3239,4.3262,4.3312,4.3408,4.3453,4.3488,4.3548,4.3562,4.3565,4.3582,4.3623,4.3628,4.3634,4.3656,4.3664,4.3571,4.3571,4.3571,0,4.2797,4.2884,4.2927,4.2987,4.3026,4.3058,4.3114,4.3156,4.3238,4.3265,4.326,4.3385,4.3428,4.3513,4.3528,4.3555,4.3572,4.3557,4.3624,4.363,4.3636,4.3658,4.3666,4.3571,4.3571,4.3571,4.3571,0,4.2879,4.2939,4.2975,4.3058,4.3102,4.3159,4.321,4.325,4.3272,4.3309,4.3384,4.3438,4.3507,4.3529,4.355,4.3617,4.3613,4.3616,4.3606,4.3642,4.3663,4.3672,4.3571,4.3571,4.3571,4.3571,0,0,4.2902,4.301,4.3023,4.3062,4.3142,4.3189,4.3248,4.3318,4.3351,4.3407,4.3458,4.3541,4.3545,4.3585,4.3612,4.3648,4.3694,4.3647,4.3649,4.3654,4.3773,4.3771,4.378,4.3704,4.3706,4.3707,4.3768,0,4.2952,4.3061,4.3103,4.3191,4.3248,4.328,4.3331,4.3386,4.3423,4.3476,4.3516,4.3575,4.3575,4.36,4.3637,4.3681,4.3719,4.3677,4.3751,4.3753,4.3735,4.3791,4.3788,4.3842,4.3777,4.3778,4.3779,0,4.3024,4.3085,4.3179,4.3255,4.3281,4.3327,4.3395,4.3446,4.3508,4.3533,4.3579,4.3605,4.3668,4.3655,4.3743,4.3713,4.3747,4.3773,4.3776,4.3784,4.3768,4.38,4.386,4.3869,4.3792,4.3791,4.379,0,4.3033,4.3138,4.3209,4.3241,4.3331,4.3363,4.3401,4.3463,4.3503,4.3563,4.3589,4.3654,4.369,4.3739,4.3782,4.3768,4.3866,4.3856,4.3888,4.3887,4.3906,4.3904,4.3973,4.3927,4.3927,4.3927,4.3927,0,4.3084,4.3141,4.3215,4.3258,4.3323,4.3371,4.3434,4.3474,4.353,4.3581,4.3612,4.3659,4.3713,4.3767,4.38,4.3869,4.3884,4.3905,4.3914,4.3903,4.39,4.3925,4.3922,4.3929,4.3929,4.3928,4.3928,0,4.3104,4.3156,4.3236,4.3316,4.3337,4.3381,4.3449,4.3493,4.3533,4.3598,4.3616,4.3677,4.3743,4.3791,4.3875,4.3898,4.3971,4.3979,4.3951,4.3955,4.3984,4.3981,4.4071,4.4086,4.403,4.403,4.4031,0,4.3134,4.3179,4.3265,4.3303,4.3342,4.3402,4.3445,4.3494,4.3536,4.3613,4.3647,4.3716,4.3774,4.3877,4.3929,4.3994,4.4004,4.4031,4.4014,4.4002,4.4005,4.4002,4.4008,4.4033,4.4034,4.4034,4.4034,0,4.3181,4.3205,4.3266,4.3336,4.3386,4.3443,4.3501,4.353,4.3589,4.3635,4.3705,4.375,4.3838,4.3906,4.3977,4.4015,4.4035,4.404,4.4051,4.404,4.4022,4.4033,4.3958,4.4037,4.4037,4.4036,4.4036,4.4036,4.3207,4.325,4.3318,4.3385,4.3434,4.3488,4.3534,4.358,4.364,4.3717,4.3742,4.3814,4.3878,4.3975,4.4015,4.4072,4.4071,4.4086,4.409,4.4093,4.4093,4.4014,4.4085,4.4085,4.4085,4.4085,4.4085,0,4.3257,4.3303,4.3365,4.3446,4.3499,4.3515,4.358,4.3623,4.3687,4.3745,4.3803,4.3883,4.395,4.4008,4.4078,4.4112,4.4123,4.4129,4.4126,4.4135,4.409,4.4074,4.4119,4.4119,4.4119,4.4119,4.4119,4.4119,4.3289,4.3363,4.3395,4.3494,4.3539,4.3612,4.3648,4.3698,4.3745,4.3835,4.3891,4.393,4.3989,4.4063,4.4125,4.4141,4.4165,4.4169,4.4186,4.4142,4.4138,4.4134,4.412,4.4173,4.4174,4.4227,4.4228,4.4228]}]]